Airfield :
LOGIN :

Register | Disclaimer

   EN    FR    IT 

 










Legend :    VFR   Marginal VFR   IFR   Intensive IFR   Very Intensive IFR
Visi :
Ceiling :
>= 8 km
>= 3000ft
5 to 8 km
1000 to 3000 ft
1500m to 5 km
500 to 1000 ft
800 to 1500m
200 to 500 ft
< 800m
< 200 ft
Symbols :   Thunderstorms  Fog  Heavy snow  Heavy precipitations  Wind > 20 kt
SIGMETs :     Misc.  Thunderstorms  Icing  Turbulence  Mountain Waves  Volcanic Ashes






- Airport Elevation : 545 ft
- IATA code : PZY


LZPP - Piešťany

CURRENT METAR :
  • 311730Z 26005KT CAVOK 27/17 Q1009

EXPIRED METARs :
  • 311700Z 27006KT 240V300 CAVOK 28/17 Q1009
  • 311630Z 26005KT 220V360 CAVOK 28/16 Q1009
  • 311600Z 29006KT 240V330 CAVOK 28/16 Q1009
  • 311500Z 23006KT 200V270 CAVOK 28/16 Q1009

TAF TAF LZPP
Valid from the 31 at 18:00 until the 01 at 03:00 UTC


311700Z 3118/0103 VRB02KT CAVOK
BECMG 3121/3123 9999 SCT040
TEMPO 0101/0103 15015G25KT TSRA SCT035CB



MET'MAP, your aeronautical weather chart ! - Copyright ORBIFLY December 2007 - Disclaimer

ORBIFLY MET'MAP TEAM :

Programming & Development : Alexandra Zaïnal
Concept & original design : Baudouin d'Aumeries
Assistance for programming : Marc-Olivier Méhu
Technical & hardware support : Manuel Goepfert

Contact : metmap@orbifly.com




SOURCES & CREDITS :

   NOAA